This is the latest recevied weather packets stored in our database for station/object LU8FCJ-5. If no packets are shown the sender has not sent any weather packets the latest 10 day(s).
| Time | Temp. | Humidity | Pressure | Rain* | Wind** | Luminosity | Snow |
|---|---|---|---|---|---|---|---|
| 1777844111 | 14.44° C | 55% | 1013.7 hPa | 0 mm | - | - | - |
| 1777843801 | 15° C | 51% | 1014 hPa | 0 mm | - | - | - |
| 1777843491 | 15.56° C | 50% | 1013.8 hPa | 0 mm | - | - | - |
| 1777843181 | 15.56° C | 49% | 1013.7 hPa | 0 mm | - | - | - |
| 1777842562 | 16.67° C | 48% | 1013.7 hPa | 0 mm | - | - | - |
| 1777842250 | 16.67° C | 46% | 1013.3 hPa | 0 mm | - | - | - |
| 1777841941 | 17.22° C | 45% | 1013.3 hPa | 0 mm | - | - | - |
| 1777841630 | 17.78° C | 43% | 1013.5 hPa | 0 mm | - | - | - |
| 1777841320 | 17.78° C | 42% | 1013.4 hPa | 0 mm | - | - | - |
| 1777841010 | 18.33° C | 41% | 1013.5 hPa | 0 mm | - | - | - |
| 1777840701 | 18.33° C | 41% | 1013.6 hPa | 0 mm | - | - | - |
| 1777840389 | 18.33° C | 41% | 1013.7 hPa | 0 mm | - | - | - |
| 1777840079 | 18.89° C | 39% | 1013.7 hPa | 0 mm | - | - | - |
| 1777839768 | 19.44° C | 38% | 1013.7 hPa | 0 mm | - | - | - |
| 1777839459 | 19.44° C | 37% | 1013.8 hPa | 0 mm | - | - | - |
| 1777839149 | 19.44° C | 39% | 1013.9 hPa | 0 mm | - | - | - |
| 1777838839 | 18.89° C | 38% | 1013.8 hPa | 0 mm | - | - | - |
| 1777838529 | 18.89° C | 38% | 1014.1 hPa | 0 mm | - | - | - |
| 1777838219 | 18.33° C | 38% | 1014.1 hPa | 0 mm | - | - | - |
| 1777837908 | 19.44° C | 36% | 1014.1 hPa | 0 mm | - | - | - |
| 1777837599 | 19.44° C | 35% | 1014.4 hPa | 0 mm | - | - | - |
| 1777837287 | 19.44° C | 36% | 1014.3 hPa | 0 mm | - | - | - |
| 1777836979 | 19.44° C | 34% | 1014.3 hPa | 0 mm | - | - | - |
| 1777836668 | 19.44° C | 34% | 1014.6 hPa | 0 mm | - | - | - |
| 1777836358 | 20° C | 34% | 1014.3 hPa | 0 mm | - | - | - |
* Rain latest hour (hover to see other rain measurements)
** Current wind speed in m/s (hover to see current wind gust speed)